Location: Castillon
(43.0896°N, 0.2156°E)
Time: 15:12:33
(UTC+00:00)

BREEZE-M DEB (TANK) - Pass Details

Date: 16 June 2021
Orbit: 333 x 16573 km, 49.3° (Epoch: 31 July)

Event Time Altitude Azimuth Distance (km) Brightness Sun altitude
Rises 22:42:53 0° 234° (SW) 8,688 8.2 -21.2°
Reaches altitude 10° 22:51:08 10° 234° (SW) 5,493 7.2 -21.7°
Maximum altitude 23:02:16 77° 152° (SSE) 880 3.1 -22.2°
Drops below altitude 10° 23:05:38 10° 65° (ENE) 1,745 5.0 -22.4°
Sets 23:06:58 0° 64° (ENE) 2,388 5.7 -22.4°
